Home   Weather   Aachen   Past weeks

Flag for Germany Past Weather in Aachen, North Rhine-Westphalia, Germany — Yesterday and Last 2 Weeks

Now
27 °F

Passing clouds.


Feels Like: 17 °F
Forecast: 17 / 27 °F
Wind: 10 mph from East

Location: Geilenkirchen Airport

Current Time: Jan 17, 2017 at 6:01:32 am

Latest Report: Jan 17, 2017 at 4:50 am


Visibility: 5 mi

Pressure: 30.54 "Hg

Humidity: 86%

Dew Point: 23 °F

Location of AachenLocation

Past Weather in Aachen — Graph

°F

Aachen Temperature Yesterday

Maximum temperature yesterday: 34 °F (at 6:50 am)
Minimum temperature yesterday: 23 °F (at 11:50 pm)
Average temperature yesterday: 31 °F

High & Low Weather Summary for the Past Weeks

 TemperatureHumidityPressure
High46 °F (Jan 11, 2:50 pm)100% (Jan 2, 6:50 pm)30.74 "Hg (Jan 2, 6:50 pm)
Low18 °F (Jan 6, 3:50 am)55% (Jan 6, 1:50 pm)28.94 "Hg (Jan 13, 12:50 am)
Average36 °F88%30.10 "Hg
* Reported Jan 2 6:50 pm — Jan 17 4:50 am, Aachen, Weather by CustomWeather, © 2017

Note: Actual official high and low records may vary slightly from our data, if they occured in-between our weather recording intervals... More about our weather records

Advertising

Aachen Weather History for the Previous 24 Hours

Scroll right to see more
 ConditionsComfort  
Time TempWeatherWind HumidityBarometerVisibility
4:50 am
Tue, Jan 17
27 °FPassing clouds.10 mph86%30.54 "Hg5 mi
3:50 am25 °FPassing clouds.9 mph100%30.54 "Hg4 mi
2:50 am23 °FIce fog.No wind93%30.54 "Hg3 mi
1:50 am23 °FIce fog.No wind100%30.51 "Hg2 mi
12:50 am25 °FIce fog.2 mph93%30.51 "Hg2 mi
11:50 pm
Mon, Jan 16
23 °FIce fog.1 mph93%30.51 "Hg2 mi
10:50 pm25 °FIce fog.2 mph93%30.48 "Hg2 mi
9:50 pm25 °FPassing clouds.3 mph100%30.45 "Hg4 mi
8:50 pm27 °FPassing clouds.2 mph93%30.45 "Hg4 mi
7:50 pm27 °FIce fog.3 mph100%30.42 "Hg3 mi
6:50 pm27 °FIce fog.No wind93%30.42 "Hg3 mi
5:50 pm28 °FPassing clouds.2 mph93%30.39 "Hg4 mi
4:50 pm30 °FPassing clouds.2 mph86%30.36 "Hg6 mi
3:50 pm34 °FScattered clouds.3 mph81%30.36 "HgN/A
2:50 pm34 °FBroken clouds.5 mph87%30.36 "Hg6 mi
1:50 pm34 °FPartly sunny.3 mph81%30.33 "HgN/A
12:50 pm34 °FPartly sunny.7 mph81%30.33 "Hg5 mi
11:50 am34 °FPartly sunny.3 mph87%30.33 "Hg4 mi
10:50 am34 °FBroken clouds.6 mph93%30.33 "Hg4 mi
9:50 am32 °FIce fog.6 mph100%30.30 "Hg2 mi
8:50 am32 °FIce fog.2 mph100%30.27 "Hg1 mi
7:50 am32 °FChilly.2 mph100%30.27 "Hg0 mi
6:50 am34 °FLight snow. Fog.3 mph93%30.27 "Hg1 mi
Weather by CustomWeather, © 2017

See weather overviewHow to use our weather pages